ICEYE-X13

导读

ICEYE-X13是芬兰商业卫星公司ICEYE开发的合成孔径雷达卫星,于2021年6月30日发射入轨,隶属于ICEYE高分辨率SAR星座。卫星运行于太阳同步轨道,搭载X波段相控阵雷达,可不受昼夜、天气影响获取地球观测数据,提供厘米级分辨率图像,服务于灾害监测、国家安全、资源管理等领域,为全球用户提供全天候精准遥感信息支持,助力提升地球动态变化监测能力。

Basic Information
目录编号:
48916
目录名称:
ICEYE-X13
国际标识:
2021-059AP
轨道中心:
EARTH
卫星名称:
ICEYE-X13
卫星全名:
--
卫星状态:
已陨落 最后检测时间 2025-11-24
发射日期:
2021-06-30 UTC
国别 :
(FI)
星等 :
--
Orbit Information
数据来源 国际轨道数据
星历时间: 2025-11-24T17:20:00+0800
轨道信息已过期205天
半长轴: 6525.364km
偏心率: 0.0004928
轨道倾角: 97.612°
近地点辐角 291.438°
升交点赤经 147.704°
平近点角 68.639°
近地点: 144.013km
远地点: 150.445km
周期: 87.431分钟
每日圈数: 16.470078
Detailed Information
使用方式:
暂无